| time (UTC) | temp F | wind direction | speed MPH | gust MPH | rain 1hr in | rain 24hr in | rain mn in | humidity % | barometer mb |
| 20260901220005 | 81 | 176 | 0.0 | 5.0 | 0.00 | 0.00 | 0.00 | 59 | 1014.1 |
| 20260901215004 | 80 | 320 | 0.0 | 4.0 | 0.00 | 0.00 | 0.00 | 60 | 1014.1 |
| 20260901214004 | 80 | 36 | 0.0 | 7.0 | 0.00 | 0.00 | 0.00 | 60 | 1014.2 |
| 20260901213004 | 81 | 30 | 0.0 | 6.0 | 0.00 | 0.00 | 0.00 | 60 | 1014.3 |
| 20260901212004 | 81 | 266 | 0.0 | 5.0 | 0.00 | 0.00 | 0.00 | 58 | 1014.3 |
| 20260901211004 | 82 | 135 | 0.0 | 6.0 | 0.00 | 0.00 | 0.00 | 58 | 1014.3 |
| 20260901210005 | 82 | 262 | 0.0 | 4.0 | 0.00 | 0.00 | 0.00 | 58 | 1014.4 |
| 20260901205004 | 82 | 290 | 2.0 | 5.0 | 0.00 | 0.00 | 0.00 | 57 | 1014.4 |
| 20260901204004 | 82 | 41 | 0.0 | 4.0 | 0.00 | 0.00 | 0.00 | 56 | 1014.5 |
| 20260901203004 | 83 | 304 | 3.0 | 7.0 | 0.00 | 0.00 | 0.00 | 55 | 1014.4 |
| 20260901202004 | 85 | 288 | 0.0 | 1.0 | 0.00 | 0.00 | 0.00 | 53 | 1014.6 |
| 20260901201004 | 85 | 4 | 0.0 | 4.0 | 0.00 | 0.00 | 0.00 | 53 | 1014.7 |
| 20260901200006 | 85 | 297 | 0.0 | 2.0 | 0.00 | 0.00 | 0.00 | 54 | 1014.8 |
| 20260901195004 | 85 | 182 | 0.0 | 1.0 | 0.00 | 0.00 | 0.00 | 52 | 1014.9 |
| 20260901194004 | 84 | 175 | 0.0 | 1.0 | 0.00 | 0.00 | 0.00 | 48 | 1015.0 |
| 20260901193004 | 84 | 115 | 0.0 | 4.0 | 0.00 | 0.00 | 0.00 | 51 | 1015.1 |
| 20260901192005 | 84 | 168 | 0.0 | 1.0 | 0.00 | 0.00 | 0.00 | 53 | 1015.2 |
| 20260901191004 | 84 | 173 | 0.0 | 1.0 | 0.00 | 0.00 | 0.00 | 53 | 1015.2 |
| 20260901185003 | 83 | 173 | 0.0 | 2.0 | 0.00 | 0.00 | 0.00 | 56 | 1015.2 |
| 20260901183004 | 82 | 189 | 0.0 | 0.0 | 0.00 | 0.00 | 0.00 | 57 | 1015.2 |
| 20260901182004 | 81 | 148 | 0.0 | 2.0 | 0.00 | 0.00 | 0.00 | 59 | 1015.3 |
| 20260901181004 | 81 | 48 | 0.0 | 1.0 | 0.00 | 0.00 | 0.00 | 59 | 1015.3 |
| 20260901180004 | 81 | 185 | 0.0 | 3.0 | 0.00 | 0.00 | 0.00 | 59 | 1015.3 |
| 20260901174004 | 79 | 190 | 0.0 | 2.0 | 0.00 | 0.00 | 0.00 | 64 | 1015.5 |
| 20260901173004 | 77 | 191 | 0.0 | 3.0 | 0.00 | 0.00 | 0.00 | 67 | 1015.3 |
| 20260901171004 | 78 | 39 | 0.0 | 0.0 | 0.00 | 0.00 | 0.00 | 66 | 1015.2 |
| 20260901165004 | 76 | 162 | 0.0 | 0.0 | 0.00 | 0.00 | 0.00 | 68 | 1015.2 |
| 20260901163003 | 74 | 264 | 0.0 | 0.0 | 0.00 | 0.00 | 0.00 | 74 | 1015.1 |
| 20260901162004 | 73 | 166 | 0.0 | 0.0 | 0.00 | 0.00 | 0.00 | 75 | 1015.1 |
| 20260901160004 | 71 | 188 | 0.0 | 1.0 | 0.00 | 0.00 | 0.00 | 79 | 1015.0 |
| 20260901155004 | 71 | 231 | 0.0 | 1.0 | 0.00 | 0.00 | 0.00 | 80 | 1015.0 |
| 20260901154003 | 70 | 233 | 0.0 | 1.0 | 0.00 | 0.00 | 0.00 | 82 | 1015.0 |
| 20260901153005 | 69 | 94 | 0.0 | 2.0 | 0.00 | 0.00 | 0.00 | 83 | 1014.9 |
| 20260901152004 | 69 | 84 | 0.0 | 0.0 | 0.00 | 0.00 | 0.00 | 85 | 1014.9 |
| 20260901151004 | 68 | 100 | 0.0 | 1.0 | 0.00 | 0.00 | 0.00 | 86 | 1014.9 |
| 20260901150004 | 68 | 149 | 0.0 | 0.0 | 0.00 | 0.00 | 0.00 | 86 | 1014.8 |
| 20260901145004 | 68 | 111 | 0.0 | 1.0 | 0.00 | 0.00 | 0.00 | 88 | 1014.5 |
| 20260901144004 | 66 | 117 | 0.0 | 1.0 | 0.00 | 0.00 | 0.00 | 92 | 1014.5 |
| 20260901143004 | 64 | 101 | 0.0 | 1.0 | 0.00 | 0.00 | 0.00 | 93 | 1014.4 |
| 20260901142004 | 63 | 231 | 0.0 | 0.0 | 0.00 | 0.00 | 0.00 | 93 | 1014.4 |
| 20260901141004 | 63 | 231 | 0.0 | 0.0 | 0.00 | 0.00 | 0.00 | 93 | 1014.3 |
| 20260901140005 | 62 | 231 | 0.0 | 0.0 | 0.00 | 0.00 | 0.00 | 92 | 1014.3 |
| 20260901135006 | 62 | 231 | 0.0 | 0.0 | 0.00 | 0.00 | 0.00 | 93 | 1014.2 |
| 20260901134005 | 62 | 231 | 0.0 | 0.0 | 0.00 | 0.00 | 0.00 | 93 | 1014.3 |
| 20260901133005 | 61 | 231 | 0.0 | 0.0 | 0.00 | 0.00 | 0.00 | 92 | 1014.2 |
| 20260901132004 | 61 | 231 | 0.0 | 0.0 | 0.00 | 0.00 | 0.00 | 92 | 1014.0 |
| 20260901131004 | 62 | 231 | 0.0 | 0.0 | 0.00 | 0.00 | 0.00 | 92 | 1013.9 |
| 20260901130007 | 62 | 231 | 0.0 | 0.0 | 0.00 | 0.00 | 0.00 | 92 | 1013.7 |
| 20260901125005 | 62 | 231 | 0.0 | 0.0 | 0.00 | 0.00 | 0.00 | 92 | 1013.7 |
| 20260901122005 | 62 | 231 | 0.0 | 0.0 | 0.00 | 0.00 | 0.00 | 93 | 1013.7 |
| 20260901121005 | 61 | 231 | 0.0 | 0.0 | 0.00 | 0.00 | 0.00 | 92 | 1013.7 |
| 20260901120005 | 62 | 231 | 0.0 | 0.0 | 0.00 | 0.00 | 0.00 | 92 | 1013.6 |
| 20260901115004 | 62 | 231 | 0.0 | 0.0 | 0.00 | 0.00 | 0.00 | 92 | 1013.6 |
| 20260901114005 | 62 | 231 | 0.0 | 0.0 | 0.00 | 0.00 | 0.00 | 92 | 1013.7 |
| 20260901113005 | 62 | 231 | 0.0 | 0.0 | 0.00 | 0.00 | 0.00 | 92 | 1013.6 |
| 20260901112004 | 62 | 231 | 0.0 | 0.0 | 0.00 | 0.00 | 0.00 | 92 | 1013.6 |
| 20260901111005 | 62 | 231 | 0.0 | 0.0 | 0.00 | 0.00 | 0.00 | 91 | 1013.6 |
| 20260901110005 | 62 | 231 | 0.0 | 0.0 | 0.00 | 0.00 | 0.00 | 91 | 1013.7 |
| 20260901105005 | 62 | 231 | 0.0 | 0.0 | 0.00 | 0.00 | 0.00 | 91 | 1013.9 |
| 20260901104006 | 63 | 231 | 0.0 | 0.0 | 0.00 | 0.00 | 0.00 | 91 | 1013.8 |
| 20260901103005 | 63 | 231 | 0.0 | 0.0 | 0.00 | 0.00 | 0.00 | 91 | 1013.8 |
| 20260901102005 | 63 | 231 | 0.0 | 0.0 | 0.00 | 0.00 | 0.00 | 91 | 1013.8 |
| 20260901100006 | 63 | 231 | 0.0 | 0.0 | 0.00 | 0.00 | 0.00 | 91 | 1013.9 |
| 20260901095004 | 63 | 231 | 0.0 | 0.0 | 0.00 | 0.00 | 0.00 | 91 | 1013.8 |
| 20260901094005 | 63 | 231 | 0.0 | 0.0 | 0.00 | 0.00 | 0.00 | 91 | 1013.9 |
| 20260901092005 | 63 | 231 | 0.0 | 0.0 | 0.00 | 0.00 | 0.00 | 91 | 1013.7 |
| 20260901091005 | 63 | 231 | 0.0 | 0.0 | 0.00 | 0.00 | 0.00 | 91 | 1013.8 |
| 20260901085005 | 63 | 230 | 0.0 | 0.0 | 0.00 | 0.00 | 0.00 | 91 | 1013.8 |
| 20260901084004 | 63 | 229 | 0.0 | 0.0 | 0.00 | 0.00 | 0.00 | 91 | 1013.9 |
| 20260901083004 | 63 | 229 | 0.0 | 0.0 | 0.00 | 0.00 | 0.00 | 91 | 1014.1 |
| 20260901082005 | 63 | 229 | 0.0 | 0.0 | 0.00 | 0.00 | 0.00 | 90 | 1014.0 |
| 20260901081005 | 63 | 229 | 0.0 | 0.0 | 0.00 | 0.00 | 0.00 | 90 | 1014.0 |
| 20260901073004 | 65 | 229 | 0.0 | 0.0 | 0.00 | 0.00 | 0.00 | 89 | 1013.9 |
| 20260901072004 | 65 | 230 | 0.0 | 0.0 | 0.00 | 0.00 | 0.00 | 89 | 1013.9 |
| 20260901071003 | 65 | 230 | 0.0 | 0.0 | 0.00 | 0.00 | 0.00 | 89 | 1014.0 |
| 20260901070007 | 65 | 229 | 0.0 | 0.0 | 0.00 | 0.00 | 0.00 | 89 | 1014.1 |
| 20260901065004 | 65 | 230 | 0.0 | 0.0 | 0.00 | 0.00 | 0.00 | 89 | 1013.9 |
| 20260901064004 | 66 | 229 | 0.0 | 0.0 | 0.00 | 0.00 | 0.00 | 89 | 1013.8 |
| 20260901063004 | 66 | 229 | 0.0 | 0.0 | 0.00 | 0.00 | 0.00 | 89 | 1013.7 |
| 20260901062004 | 66 | 229 | 0.0 | 0.0 | 0.00 | 0.00 | 0.00 | 89 | 1013.5 |
| 20260901061004 | 66 | 230 | 0.0 | 0.0 | 0.00 | 0.00 | 0.00 | 89 | 1013.6 |
| 20260901055004 | 67 | 253 | 0.0 | 0.0 | 0.00 | 0.00 | 0.00 | 88 | 1013.5 |
| 20260901053004 | 67 | 253 | 0.0 | 1.0 | 0.00 | 0.00 | 0.00 | 88 | 1013.6 |
| 20260901051005 | 67 | 177 | 0.0 | 0.0 | 0.00 | 0.00 | 0.00 | 88 | 1013.3 |
| 20260901045004 | 68 | 98 | 0.0 | 1.0 | 0.00 | 0.00 | 0.00 | 88 | 1013.3 |
| 20260901043004 | 68 | 244 | 0.0 | 1.0 | 0.00 | 0.00 | 0.00 | 87 | 1013.2 |
| 20260901041004 | 68 | 288 | 0.0 | 0.0 | 0.00 | 0.00 | 0.00 | 87 | 1013.1 |
| 20260901040004 | 68 | 288 | 0.0 | 1.0 | 0.00 | 0.00 | 0.00 | 86 | 1012.9 |
| 20260901035004 | 68 | 287 | 0.0 | 1.0 | 0.00 | 0.00 | 0.00 | 86 | 1012.6 |
| 20260901034004 | 68 | 333 | 0.0 | 0.0 | 0.00 | 0.00 | 0.00 | 85 | 1012.5 |
| 20260901033004 | 69 | 1 | 0.0 | 1.0 | 0.00 | 0.00 | 0.00 | 85 | 1012.4 |
| 20260901032004 | 69 | 238 | 1.0 | 2.0 | 0.00 | 0.00 | 0.00 | 84 | 1012.2 |
| 20260901031004 | 69 | 353 | 0.0 | 1.0 | 0.00 | 0.00 | 0.00 | 84 | 1012.1 |
| 20260901025004 | 69 | 22 | 0.0 | 1.0 | 0.00 | 0.00 | 0.00 | 83 | 1012.0 |
| 20260901024004 | 70 | 201 | 0.0 | 3.0 | 0.00 | 0.00 | 0.00 | 82 | 1011.8 |
| 20260901023004 | 70 | 55 | 0.0 | 5.0 | 0.00 | 0.00 | 0.00 | 82 | 1011.8 |
| 20260901022003 | 70 | 27 | 1.0 | 4.0 | 0.00 | 0.00 | 0.00 | 81 | 1011.9 |
| 20260901021003 | 71 | 283 | 2.0 | 4.0 | 0.00 | 0.00 | 0.00 | 79 | 1011.9 |
| 20260901020004 | 72 | 91 | 0.0 | 3.0 | 0.00 | 0.00 | 0.00 | 77 | 1011.9 |
| 20260901015005 | 73 | 43 | 0.0 | 3.0 | 0.00 | 0.00 | 0.00 | 76 | 1011.8 |
| 20260901014005 | 74 | 183 | 1.0 | 2.0 | 0.00 | 0.00 | 0.00 | 75 | 1011.9 |
| 20260901013005 | 74 | 36 | 0.0 | 6.0 | 0.00 | 0.00 | 0.00 | 73 | 1011.8 |
| 20260901012005 | 75 | 322 | 0.0 | 6.0 | 0.00 | 0.00 | 0.00 | 71 | 1011.9 |
| 20260901005005 | 78 | 159 | 0.0 | 4.0 | 0.00 | 0.00 | 0.00 | 66 | 1011.9 |
| 20260901004005 | 79 | 39 | 0.0 | 5.0 | 0.00 | 0.00 | 0.00 | 65 | 1011.9 |
| 20260901003005 | 79 | 85 | 0.0 | 3.0 | 0.00 | 0.00 | 0.00 | 65 | 1011.9 |
| 20260901001005 | 81 | 283 | 3.0 | 5.0 | 0.00 | 0.00 | 0.00 | 62 | 1011.8 |
| 20260901000006 | 81 | 329 | 0.0 | 3.0 | 0.00 | 0.00 | 0.00 | 64 | 1011.8 |
| 20260831235005 | 81 | 359 | 4.0 | 6.0 | 0.00 | 0.00 | 0.00 | 64 | 1011.8 |
| 20260831234004 | 82 | 150 | 0.0 | 5.0 | 0.00 | 0.00 | 0.00 | 63 | 1011.7 |
| 20260831233005 | 83 | 359 | 0.0 | 7.0 | 0.00 | 0.00 | 0.00 | 62 | 1011.7 |
| 20260831232004 | 83 | 3 | 0.0 | 9.0 | 0.00 | 0.00 | 0.00 | 60 | 1011.6 |
| 20260831231005 | 84 | 346 | 0.0 | 3.0 | 0.00 | 0.00 | 0.00 | 60 | 1011.6 |
| 20260831230005 | 84 | 21 | 0.0 | 4.0 | 0.00 | 0.00 | 0.00 | 58 | 1011.6 |
| 20260831225005 | 84 | 356 | 0.0 | 6.0 | 0.00 | 0.00 | 0.00 | 58 | 1011.6 |
| 20260831224005 | 84 | 297 | 3.0 | 7.0 | 0.00 | 0.00 | 0.00 | 57 | 1011.8 |
| 20260831223005 | 84 | 266 | 0.0 | 5.0 | 0.00 | 0.00 | 0.00 | 58 | 1012.0 |
| 20260831222004 | 85 | 270 | 3.0 | 7.0 | 0.00 | 0.00 | 0.00 | 57 | 1012.1 |
| 20260831221005 | 85 | 319 | 3.0 | 5.0 | 0.00 | 0.00 | 0.00 | 58 | 1012.2 |